WC1H Weather Reports


time (UTC)temp
C
wind
direction
speed
KPH
gust
KPH
rain 1hr
cm
rain 24hr
cm
rain mn
cm
humidity
%
barometer
mb
20260505110713 13 150 0.0 0.0 0.00 0.00 0.00 63 1009.1
20260505110209 13 146 0.0 0.0 0.00 0.00 0.00 63 1009.2
20260505102203 11 195 0.0 1.6 0.00 0.00 0.00 59 1009.3
20260505101700 11 134 0.0 0.0 0.00 0.00 0.00 58 1009.2
20260505101159 11 143 0.0 0.0 0.00 0.00 0.00 58 1009.3
20260505100700 11 272 0.0 0.0 0.00 0.00 0.00 57 1009.3
20260505100200 11 206 0.0 0.0 0.00 0.00 0.00 58 1009.2
20260505095659 11 101 0.0 0.0 0.00 0.00 0.00 58 1009.2
20260505095159 11 82 0.0 0.0 0.00 0.00 0.00 59 1009.2
20260505094700 11 82 0.0 0.0 0.00 0.00 0.00 59 1009.1
20260505094203 11 79 0.0 0.0 0.00 0.00 0.00 58 1009.2
20260505094159 11 79 0.0 0.0 0.00 0.00 0.00 59 1009.2
20260505093204 11 79 0.0 0.0 0.00 0.00 0.00 56 1009.2
20260505093200 11 79 0.0 0.0 0.00 0.00 0.00 57 1009.2
20260505092803 10 79 0.0 0.0 0.00 0.00 0.00 55 1009.3
20260505091704 10 79 0.0 0.0 0.00 0.00 0.00 59 1009.4
20260505091700 10 79 0.0 0.0 0.00 0.00 0.00 56 1009.3
20260505090659 10 79 0.0 0.0 0.00 0.00 0.00 58 1009.4
20260505090200 10 79 0.0 0.0 0.00 0.00 0.00 59 1009.4
20260505085659 11 79 0.0 0.0 0.00 0.00 0.00 59 1009.4
20260505085159 11 79 0.0 0.0 0.00 0.00 0.00 60 1009.5
20260505084659 11 79 0.0 0.0 0.00 0.00 0.00 60 1009.5
20260505084159 11 79 0.0 0.0 0.00 0.00 0.00 61 1009.6
20260505083659 11 79 0.0 0.0 0.00 0.00 0.00 61 1009.4
20260505083159 11 79 0.0 0.0 0.00 0.00 0.00 61 1009.4
20260505082700 11 78 0.0 0.0 0.00 0.00 0.00 62 1009.4
20260505082200 11 78 0.0 0.0 0.00 0.00 0.00 62 1009.5
20260505081700 11 78 0.0 0.0 0.00 0.00 0.00 62 1009.5
20260505081158 11 78 0.0 0.0 0.00 0.00 0.00 62 1009.6
20260505080657 11 78 0.0 0.0 0.00 0.00 0.00 62 1009.6
20260505080155 11 78 0.0 0.0 0.00 0.00 0.00 63 1009.5
20260505075659 11 78 0.0 0.0 0.00 0.00 0.00 62 1009.6
20260505075655 11 78 0.0 0.0 0.00 0.00 0.00 62 1009.6
20260505074652 11 78 0.0 0.0 0.00 0.00 0.00 62 1009.6
20260505074151 11 78 0.0 0.0 0.00 0.00 0.00 63 1009.6
20260505073650 11 78 0.0 0.0 0.00 0.00 0.00 63 1009.6
20260505073147 11 78 0.0 0.0 0.00 0.00 0.00 65 1009.6
20260505072644 11 78 0.0 0.0 0.00 0.00 0.00 64 1009.7
20260505072143 11 78 0.0 0.0 0.00 0.00 0.00 65 1009.7
20260505071644 11 78 0.0 0.0 0.00 0.00 0.00 65 1009.7
20260505071143 11 170 0.0 0.0 0.00 0.00 0.00 65 1009.7
20260505070641 11 171 0.0 0.0 0.00 0.00 0.00 66 1009.7
20260505070145 11 150 0.0 0.0 0.00 0.00 0.00 66 1009.8
20260505070141 11 170 0.0 0.0 0.00 0.00 0.00 66 1009.7
20260505065140 11 134 0.0 0.0 0.00 0.00 0.00 66 1009.8
20260505064640 11 134 0.0 0.0 0.00 0.00 0.00 66 1009.7
20260505064139 11 133 0.0 0.0 0.00 0.00 0.00 66 1009.7
20260505063638 11 120 0.0 0.0 0.00 0.00 0.00 67 1009.7
20260505063141 12 108 0.0 0.0 0.00 0.00 0.00 67 1009.8
20260505063137 11 120 0.0 0.0 0.00 0.00 0.00 67 1009.7
20260505062137 12 108 0.0 0.0 0.00 0.00 0.00 67 1009.8
20260505061636 12 108 0.0 0.0 0.00 0.00 0.00 67 1009.8
20260505061135 12 110 0.0 0.0 0.00 0.00 0.00 67 1009.8
20260505060635 12 117 0.0 3.2 0.00 0.00 0.00 67 1009.8
20260505060135 12 240 0.0 3.2 0.00 0.00 0.00 67 1009.8
20260505055640 12 135 0.0 0.0 0.00 0.00 0.00 67 1009.8
20260505055635 12 153 0.0 0.0 0.00 0.00 0.00 67 1009.7
20260505055239 12 135 0.0 0.0 0.00 0.00 0.00 66 1009.8
20260505054739 12 135 0.0 0.0 0.00 0.00 0.00 66 1009.7
20260505053635 13 135 0.0 1.6 0.00 0.00 0.00 66 1009.7
20260505053135 13 135 0.0 1.6 0.00 0.00 0.00 66 1009.7
20260505052634 13 117 0.0 1.6 0.00 0.00 0.00 65 1009.6
20260505052133 13 96 0.0 0.0 0.00 0.00 0.00 65 1009.6
20260505051637 13 121 0.0 0.0 0.00 0.00 0.00 65 1009.6
20260505051633 13 104 0.0 0.0 0.00 0.00 0.00 65 1009.7
20260505050631 13 246 0.0 0.0 0.00 0.00 0.00 65 1009.7
20260505050133 13 149 0.0 0.0 0.00 0.00 0.00 65 1009.9
20260505050129 13 149 0.0 0.0 0.00 0.00 0.00 65 1009.8
20260505041625 13 120 0.0 0.0 0.00 0.00 0.00 63 1009.8
20260505041125 13 264 0.0 0.0 0.00 0.00 0.00 63 1009.8
20260505040625 13 123 0.0 0.0 0.00 0.00 0.00 62 1009.8
20260505040128 13 257 0.0 0.0 0.00 0.00 0.00 62 1009.7
20260505040124 13 75 0.0 0.0 0.00 0.00 0.00 62 1009.7
20260505035121 13 294 0.0 0.0 0.00 0.00 0.00 61 1009.6
20260505034621 13 110 0.0 0.0 0.00 0.00 0.00 61 1009.7
20260505034121 13 156 0.0 0.0 0.00 0.00 0.00 60 1009.7
20260505033619 14 141 0.0 0.0 0.00 0.00 0.00 60 1009.7
20260505033119 14 98 0.0 0.0 0.00 0.00 0.00 59 1009.5
20260505032620 14 105 0.0 0.0 0.00 0.00 0.00 58 1009.6
20260505032117 14 128 0.0 0.0 0.00 0.00 0.00 58 1009.6
20260505031617 14 275 0.0 0.0 0.00 0.00 0.00 57 1009.7
20260505031118 14 159 0.0 0.0 0.00 0.00 0.00 57 1009.6
20260505030620 14 108 0.0 0.0 0.00 0.00 0.00 57 1009.7
20260505030616 14 327 0.0 0.0 0.00 0.00 0.00 56 1009.7
20260505025615 14 223 0.0 0.0 0.00 0.00 0.00 56 1009.6
20260505025115 14 211 0.0 0.0 0.00 0.00 0.00 55 1009.6
20260505024619 15 134 0.0 3.2 0.00 0.00 0.00 54 1009.7
20260505024615 15 158 0.0 3.2 0.00 0.00 0.00 55 1009.6
20260505023615 15 130 0.0 1.6 0.00 0.00 0.00 54 1009.7
20260505023120 15 88 0.0 4.8 0.00 0.00 0.00 53 1009.7
20260505023116 15 268 0.0 0.0 0.00 0.00 0.00 54 1009.7
20260505022719 15 136 0.0 4.8 0.00 0.00 0.00 53 1009.6
20260505021614 15 196 0.0 0.0 0.00 0.00 0.00 53 1009.7
20260505021113 15 140 0.0 0.0 0.00 0.00 0.00 52 1009.7
20260505020613 15 124 0.0 1.6 0.00 0.00 0.00 52 1009.6
20260505020113 15 146 0.0 1.6 0.00 0.00 0.00 52 1009.7
20260505015613 15 104 0.0 0.0 0.00 0.00 0.00 52 1009.6
20260505015117 15 103 0.0 1.6 0.00 0.00 0.00 51 1009.6
20260505015113 15 131 0.0 0.0 0.00 0.00 0.00 51 1009.7
20260505014114 15 133 0.0 1.6 0.00 0.00 0.00 50 1009.5
20260505013613 15 83 0.0 1.6 0.00 0.00 0.00 50 1009.4
20260505013114 16 131 0.0 1.6 0.00 0.00 0.00 50 1009.4
20260505012612 16 281 0.0 0.0 0.00 0.00 0.00 49 1009.3
20260505012116 16 224 0.0 1.6 0.00 0.00 0.00 49 1009.0
20260505012112 16 136 0.0 0.0 0.00 0.00 0.00 49 1009.1
20260505011715 16 140 0.0 1.6 0.00 0.00 0.00 48 1009.0
20260505010611 16 104 0.0 3.2 0.00 0.00 0.00 48 1008.8
20260505010110 16 135 0.0 3.2 0.00 0.00 0.00 48 1008.8
20260505005611 16 131 0.0 0.0 0.00 0.00 0.00 49 1008.7
20260505005115 16 105 0.0 0.0 0.00 0.00 0.00 50 1008.6
20260505005111 16 230 0.0 0.0 0.00 0.00 0.00 49 1008.6
20260505004111 16 288 0.0 4.8 0.00 0.00 0.00 50 1008.6
20260505003610 16 103 0.0 4.8 0.00 0.00 0.00 50 1008.4
20260505003113 16 109 0.0 0.0 0.00 0.00 0.00 49 1008.1
20260505003108 16 141 0.0 0.0 0.00 0.00 0.00 50 1008.2
20260505002109 16 277 0.0 4.8 0.00 0.00 0.00 49 1007.9
20260505001609 16 76 0.0 4.8 0.00 0.00 0.00 49 1007.7
20260505001109 17 74 0.0 8.0 0.00 0.00 0.00 48 1007.7
20260505000609 17 125 0.0 8.0 0.00 0.00 0.00 46 1007.6
20260505000106 17 121 0.0 4.8 0.00 0.00 0.00 44 1007.4
20260504235611 18 117 0.0 1.6 0.00 0.00 0.00 44 1007.2
20260504235607 17 113 0.0 4.8 0.00 0.00 0.00 45 1007.3
20260504234610 18 207 0.0 4.8 0.00 0.00 0.00 44 1007.0
20260504234606 18 235 0.0 4.8 0.00 0.00 0.00 43 1007.2
20260504233607 18 23 0.0 1.6 0.00 0.00 0.00 44 1007.1
20260504233106 18 142 0.0 0.0 0.00 0.00 0.00 45 1007.0
20260504232606 18 145 0.0 0.0 0.00 0.00 0.00 43 1006.9
20260504232110 19 215 0.0 16.1 0.00 0.00 0.00 40 1006.4
20260504232106 18 131 0.0 8.0 0.00 0.00 0.00 41 1006.8
20260504231707 18 98 0.0 16.1 0.00 0.00 0.00 40 1006.6
20260504230602 19 179 0.0 6.4 0.00 0.00 0.00 39 1006.3
20260504225603 20 50 0.0 3.2 0.00 0.00 0.00 38 1006.3
20260504225102 20 128 0.0 0.0 0.00 0.00 0.00 37 1006.0
20260504224603 20 145 0.0 0.0 0.00 0.00 0.00 37 1006.0
20260504224103 20 277 0.0 0.0 0.00 0.00 0.00 36 1005.9
20260504223602 20 227 0.0 0.0 0.00 0.00 0.00 35 1005.8
20260504223103 21 255 0.0 0.0 0.00 0.00 0.00 35 1005.8
20260504222603 21 117 0.0 1.6 0.00 0.00 0.00 34 1005.6
20260504222101 21 148 0.0 1.6 0.00 0.00 0.00 30 1005.8
20260504221604 22 108 0.0 0.0 0.00 0.00 0.00 29 1005.6
20260504221600 21 161 0.0 0.0 0.00 0.00 0.00 30 1005.6
20260504220603 22 301 0.0 0.0 0.00 0.00 0.00 29 1005.6
20260504220559 22 77 0.0 0.0 0.00 0.00 0.00 29 1005.7
20260504215558 22 101 0.0 0.0 0.00 0.00 0.00 28 1005.6
20260504215059 23 218 0.0 0.0 0.00 0.00 0.00 28 1005.6
20260504214557 23 108 0.0 0.0 0.00 0.00 0.00 28 1005.8
20260504214056 22 311 0.0 8.0 0.00 0.00 0.00 28 1005.7
20260504213557 22 271 0.0 9.7 0.00 0.00 0.00 27 1005.6
20260504213055 23 284 0.0 9.7 0.00 0.00 0.00 27 1005.6
20260504212555 23 134 0.0 0.0 0.00 0.00 0.00 27 1005.6
20260504212055 23 132 0.0 0.0 0.00 0.00 0.00 27 1005.8
20260504211552 23 137 0.0 0.0 0.00 0.00 0.00 27 1005.6
20260504211052 23 290 0.0 1.6 0.00 0.00 0.00 26 1005.8
20260504210552 23 237 0.0 1.6 0.00 0.00 0.00 27 1005.6
20260504210050 23 260 0.0 1.6 0.00 0.00 0.00 27 1005.7
20260504205550 23 240 0.0 0.0 0.00 0.00 0.00 27 1005.7
20260504205049 22 344 0.0 11.3 0.00 0.00 0.00 27 1005.6
20260504204548 22 307 0.0 11.3 0.00 0.00 0.00 26 1005.8
20260504204052 23 227 0.0 9.7 0.00 0.00 0.00 26 1005.8
20260504204048 23 224 0.0 3.2 0.00 0.00 0.00 26 1005.9
20260504203048 23 265 0.0 9.7 0.00 0.00 0.00 25 1005.7
20260504202549 23 285 0.0 6.4 0.00 0.00 0.00 25 1005.8
20260504202050 23 94 0.0 11.3 0.00 0.00 0.00 25 1005.9
20260504201548 23 303 0.0 11.3 0.00 0.00 0.00 26 1005.9
20260504201048 23 291 0.0 11.3 0.00 0.00 0.00 25 1005.9
20260504200553 23 248 0.0 3.2 0.00 0.00 0.00 26 1005.8
20260504200549 23 246 0.0 11.3 0.00 0.00 0.00 25 1006.1
20260504195553 23 155 0.0 8.0 0.00 0.00 0.00 24 1006.0
20260504195549 23 227 0.0 4.8 0.00 0.00 0.00 25 1006.0
20260504194548 23 317 0.0 8.0 0.00 0.00 0.00 24 1006.1
20260504194052 22 226 0.0 16.1 0.00 0.00 0.00 25 1006.1
20260504194048 23 258 0.0 9.7 0.00 0.00 0.00 25 1005.9
20260504193654 22 345 0.0 16.1 0.00 0.00 0.00 26 1006.0
20260504192550 22 163 0.0 0.0 0.00 0.00 0.00 25 1006.0
20260504192048 22 324 0.0 4.8 0.00 0.00 0.00 25 1006.1
20260504191548 22 277 0.0 9.7 0.00 0.00 0.00 25 1006.2
20260504191053 22 278 0.0 4.8 0.00 0.00 0.00 26 1006.2
20260504191049 22 333 0.0 9.7 0.00 0.00 0.00 25 1006.1
20260504190048 22 98 0.0 1.6 0.00 0.00 0.00 25 1006.3
20260504185547 22 298 0.0 12.9 0.00 0.00 0.00 26 1006.2
20260504185045 22 242 0.0 20.9 0.00 0.00 0.00 26 1006.3
20260504184544 22 271 0.0 20.9 0.00 0.00 0.00 26 1006.2
20260504184045 22 277 0.0 4.8 0.00 0.00 0.00 26 1006.2
20260504183542 22 194 0.0 4.8 0.00 0.00 0.00 26 1006.3
20260504183046 22 271 0.0 4.8 0.00 0.00 0.00 26 1006.4
20260504183042 22 277 0.0 4.8 0.00 0.00 0.00 26 1006.3
20260504182648 22 126 0.0 19.3 0.00 0.00 0.00 27 1006.2
20260504181541 22 126 0.0 19.3 0.00 0.00 0.00 26 1006.4
20260504181040 22 330 0.0 14.5 0.00 0.00 0.00 27 1006.5
20260504180540 22 279 0.0 9.7 0.00 0.00 0.00 26 1006.7
20260504180042 22 307 1.6 35.4 0.00 0.00 0.00 27 1006.5
20260504175540 21 36 1.6 35.4 0.00 0.00 0.00 27 1006.6
20260504175040 21 195 0.0 3.2 0.00 0.00 0.00 27 1006.8
20260504174541 21 154 0.0 6.4 0.00 0.00 0.00 26 1006.6
20260504174040 21 141 0.0 6.4 0.00 0.00 0.00 28 1006.6
20260504173540 21 259 0.0 6.4 0.00 0.00 0.00 28 1006.8
20260504173039 21 152 0.0 4.8 0.00 0.00 0.00 28 1006.7
20260504172538 21 145 0.0 11.3 0.00 0.00 0.00 27 1006.8
20260504172038 21 169 0.0 19.3 0.00 0.00 0.00 28 1006.9
20260504171536 21 260 0.0 19.3 0.00 0.00 0.00 28 1006.7
20260504171036 21 141 0.0 4.8 0.00 0.00 0.00 29 1006.6
20260504170536 21 322 0.0 4.8 0.00 0.00 0.00 29 1006.7
20260504150632 19 27 0.0 19.3 0.00 0.00 0.00 33 1008.3
20260504141030 17 255 0.0 14.5 0.00 0.00 0.00 36 1008.7
20260504141026 17 146 0.0 0.0 0.00 0.00 0.00 37 1008.7